Location: Hartford
(41.7640°N, 72.6860°W)
Time: 09:32:16
(UTC-04:00)

ISS - All Passes

Search period start: 29 April 2017 00:00
Search period end: 09 May 2017 00:00
Orbit: 401 x 409 km, 51.6° (Epoch: 29 April)

Date Brightness Start Highest point End Pass type
(mag) Time Alt. Az. Time Alt. Az. Time Alt. Az.
29 Apr - 07:46:27 10° SW 07:49:41 67° SE 07:52:56 10° ENE daylight
29 Apr - 09:23:44 10° WNW 09:26:26 23° NNW 09:29:07 10° NE daylight
29 Apr - 11:01:53 10° NW 11:03:47 14° N 11:05:42 10° NE daylight
29 Apr - 12:38:23 10° NW 12:41:08 24° NNE 12:43:52 10° ENE daylight
29 Apr - 14:14:37 10° WNW 14:17:50 59° SW 14:21:02 10° SE daylight
30 Apr - 06:54:45 10° SSW 06:57:45 34° SE 07:00:45 10° ENE daylight
30 Apr - 08:31:14 10° W 08:34:14 32° NNW 08:37:15 10° NE daylight
30 Apr - 10:09:28 10° NW 10:11:28 15° N 10:13:28 10° NNE daylight
30 Apr - 11:46:28 10° NNW 11:48:53 19° NNE 11:51:19 10° ENE daylight
30 Apr - 13:22:34 10° NW 13:25:50 73° NE 13:29:04 10° ESE daylight
30 Apr - 15:00:21 10° WSW 15:01:55 13° SW 15:03:29 10° SSW daylight
01 May - 06:03:31 10° S 06:05:52 19° SE 06:08:14 10° E daylight
01 May - 07:38:54 10° WSW 07:42:06 52° NNW 07:45:19 10° NE daylight
01 May - 09:16:55 10° NW 09:19:10 17° NNW 09:21:24 10° NNE daylight
01 May - 10:54:29 10° NNW 10:56:36 16° N 10:58:43 10° NE daylight
01 May - 12:30:36 10° NW 12:33:45 41° NNE 12:36:51 10° ESE daylight
01 May - 14:07:23 10° W 14:10:05 24° SW 14:12:46 10° S daylight
02 May - 06:46:47 10° SW 06:50:02 86° SE 06:53:19 10° NE daylight
02 May - 08:24:18 10° WNW 08:26:53 21° NNW 08:29:27 10° NE daylight
02 May - 10:02:20 10° NNW 10:04:16 15° N 10:06:12 10° NE daylight
02 May - 11:38:41 10° NW 11:41:34 28° NNE 11:44:26 10° E daylight
02 May - 13:15:01 10° WNW 13:18:10 45° SW 13:21:17 10° SSE daylight
03 May - 05:54:54 10° SSW 05:58:02 44° SE 06:01:11 10° ENE daylight
03 May - 07:31:44 10° W 07:34:37 28° NNW 07:37:31 10° NE daylight
03 May - 09:09:58 10° NW 09:11:55 15° N 09:13:51 10° NNE daylight
03 May - 10:46:45 10° NW 10:49:19 21° NNE 10:51:51 10° ENE daylight
03 May - 12:22:53 10° NW 12:26:09 89° SSW 12:29:24 10° SE daylight
04 May - 05:03:25 10° S 05:06:06 23° SE 05:08:46 10° E visible
04 May - 06:39:17 10° WSW 06:42:26 43° NNW 06:45:35 10° NE daylight
04 May - 08:17:25 10° NW 08:19:33 16° N 08:21:41 10° NNE daylight
04 May - 09:54:46 10° NNW 09:57:00 17° N 09:59:13 10° NE daylight
04 May - 11:30:51 10° NW 11:34:03 50° NNE 11:37:14 10° ESE daylight
04 May - 13:07:54 10° W 13:10:18 19° SW 13:12:41 10° S daylight
05 May - 04:12:43 10° SSE 04:14:13 13° SE 04:15:43 10° ESE visible
05 May - 05:47:01 10° WSW 05:50:18 75° NW 05:53:34 10° NE daylight
05 May - 07:24:45 10° WNW 07:27:12 19° NNW 07:29:40 10° NNE daylight
05 May - 09:02:38 10° NNW 09:04:38 15° N 09:06:37 10° NE daylight
05 May - 10:38:53 10° NW 10:41:52 32° NNE 10:44:50 10° E daylight
05 May - 12:15:21 10° WNW 12:18:22 35° SW 12:21:23 10° SSE daylight
06 May - 04:55:01 10° SW 04:58:13 57° SE 05:01:27 10° ENE visible
06 May - 06:32:07 10° W 06:34:54 25° NNW 06:37:41 10° NE daylight
06 May - 08:10:19 10° NW 08:12:14 15° N 08:14:09 10° NE daylight
06 May - 09:46:55 10° NW 09:49:35 23° NNE 09:52:17 10° ENE daylight
06 May - 11:23:06 10° WNW 11:26:22 70° SW 11:29:35 10° SE daylight
07 May - 04:03:19 10° SSW 04:06:13 29° SE 04:09:08 10° ENE visible
07 May - 05:39:34 10° W 05:42:39 36° NNW 05:45:43 10° NE daylight
07 May - 07:17:47 10° NW 07:19:50 15° N 07:21:53 10° NNE daylight
07 May - 08:54:55 10° NNW 08:57:16 18° NNE 08:59:36 10° ENE daylight
07 May - 10:31:00 10° NW 10:34:15 63° NNE 10:37:28 10° ESE daylight
07 May - 12:08:25 10° W 12:10:23 15° SW 12:12:21 10° S daylight
08 May - 03:12:11 10° S 03:14:17 16° SE 03:16:22 10° E visible
08 May - 04:47:12 10° WSW 04:50:27 60° NNW 04:53:41 10° NE visible
08 May - 06:25:06 10° WNW 06:27:26 18° NNW 06:29:46 10° NNE daylight
08 May - 08:02:48 10° NNW 08:04:52 15° N 08:06:56 10° NE daylight
08 May - 09:38:58 10° NW 09:42:03 37° NNE 09:45:06 10° E daylight
08 May - 11:15:36 10° WNW 11:18:27 28° SW 11:21:18 10° SSE daylight
